Redwood City, CA

5:09 AM PST on February 07, 2016 (GMT -0800)
San Carlos

Weather History for KSQL - November, 2013

Change the Weather History Date:

Monday, November 11, 2013

  Actual Average Record
Temperature  
Mean Temperature 56 °F -  
Max Temperature 62 °F 65 °F 75 °F (1969)
Min Temperature 51 °F 44 °F 34 °F (1975)
Degree Days  
Heating Degree Days 8    
Growing Degree Days 6 (Base 50)    
Moisture  
Dew Point 50 °F    
Average Humidity 80    
Maximum Humidity 88    
Minimum Humidity 63    
Precipitation  
Precipitation 0.00 in - - ()
Sea Level Pressure  
Sea Level Pressure 30.13 in    
Wind  
Wind Speed 3 mph (NNW)    
Max Wind Speed 9 mph    
Max Gust Speed -    
Visibility 8 miles    
Events      
Averages and records for this station are not official NWS values.
T = Trace of Precipitation, MM = Missing Value Source: NWS Daily Summary

Daily Weather History Graph

Daily Weather History Graph

Search for Another Location

Airport or City:

Trip Planner

Search our weather history database for the weather conditions in past years. The results will help you decide how hot, cold, wet, or windy it might be!

Date:

Astronomy

Nov. 11, 2013 Rise Set
Actual Time 6:44 AM PST 5:00 PM PST
Civil Twilight 6:17 AM PST 5:28 PM PST
Nautical Twilight 5:45 AM PST 6:00 PM PST
Astronomical Twilight 5:14 AM PST 6:30 PM PST
Moon 1:38 PM PST (11/11) 12:42 AM PST (11/11)
Length of Visible Light 11h 11m
Length of Day
10h 16m
Waxing Gibbous, 67% of the Moon is Illuminated
Nov 11
Waxing Gibbous
Nov 17
Full
Nov 25
Last Quarter
Dec 2
New
Dec 9
First Quarter

Hourly Weather History & Observations

Time (PST) Temp. Dew Point Humidity Pressure Visibility Wind Dir Wind Speed Gust Speed Precip Events Conditions
12:15 AM 51.8 °F 48.2 °F 88% 30.13 in 8.0 mi Calm Calm - N/A   Overcast
12:35 AM 51.8 °F 48.2 °F 88% 30.13 in 7.0 mi NW 3.5 mph - N/A   Overcast
12:55 AM 53.6 °F 48.2 °F 82% 30.13 in 8.0 mi West 3.5 mph - N/A   Overcast
1:15 AM 53.6 °F 48.2 °F 82% 30.13 in 10.0 mi West 9.2 mph - N/A   Overcast
1:35 AM 53.6 °F 48.2 °F 82% 30.13 in 10.0 mi WNW 5.8 mph - N/A   Overcast
1:55 AM 53.6 °F 48.2 °F 82% 30.13 in 10.0 mi NW 3.5 mph - N/A   Overcast
2:15 AM 53.6 °F 48.2 °F 82% 30.13 in 10.0 mi NNW 3.5 mph - N/A   Overcast
2:35 AM 53.6 °F 48.2 °F 82% 30.13 in 10.0 mi Calm Calm - N/A   Overcast
2:55 AM 53.6 °F 48.2 °F 82% 30.14 in 10.0 mi NW 3.5 mph - N/A   Overcast
3:15 AM 53.6 °F 48.2 °F 82% 30.14 in 10.0 mi NW 4.6 mph - N/A   Overcast
3:35 AM 53.6 °F 48.2 °F 82% 30.15 in 10.0 mi West 4.6 mph - N/A   Overcast
3:55 AM 53.6 °F 48.2 °F 82% 30.15 in 10.0 mi Calm Calm - N/A   Overcast
4:15 AM 53.6 °F 48.2 °F 82% 30.14 in 10.0 mi Calm Calm - N/A   Overcast
4:35 AM 53.6 °F 50.0 °F 88% 30.11 in 10.0 mi ESE 4.6 mph - N/A   Overcast
4:55 AM 53.6 °F 50.0 °F 88% 30.11 in 8.0 mi ESE 6.9 mph - N/A   Overcast
5:15 AM 53.6 °F 48.2 °F 82% 30.10 in 8.0 mi South 6.9 mph - N/A   Overcast
5:35 AM 53.6 °F 48.2 °F 82% 30.11 in 8.0 mi SSW 4.6 mph - N/A   Overcast
5:55 AM 53.6 °F 48.2 °F 82% 30.11 in 7.0 mi South 3.5 mph - N/A   Overcast
6:15 AM 53.6 °F 48.2 °F 82% 30.11 in 7.0 mi Calm Calm - N/A   Overcast
6:35 AM 53.6 °F 48.2 °F 82% 30.12 in 6.0 mi Calm Calm - N/A   Overcast
6:47 AM 53.6 °F 48.2 °F 82% 30.12 in 5.0 mi Calm Calm - N/A   Overcast
6:55 AM 53.6 °F 48.2 °F 82% 30.12 in 4.0 mi Calm Calm - N/A   Haze
7:50 AM 53.6 °F 48.2 °F 82% 30.13 in 4.0 mi Calm Calm - N/A   Haze
8:51 AM 55.4 °F 48.2 °F 77% 30.13 in 4.0 mi Calm Calm - N/A   Haze
9:47 AM 55.4 °F 50.0 °F 82% 30.15 in 4.0 mi NE 3.5 mph - N/A   Haze
10:47 AM 57.2 °F 50.0 °F 77% 30.15 in 4.0 mi NE 5.8 mph - N/A   Haze
11:54 AM 57.2 °F 51.8 °F 82% 30.14 in 4.0 mi Variable 4.6 mph - N/A   Haze
12:50 PM 59.0 °F 50.0 °F 72% 30.12 in 8.0 mi Variable 4.6 mph - N/A   Mostly Cloudy
1:47 PM 62.6 °F 50.0 °F 63% 30.10 in 8.0 mi Calm Calm - N/A   Mostly Cloudy
2:50 PM 62.6 °F 51.8 °F 68% 30.09 in 7.0 mi NNE 5.8 mph - N/A   Mostly Cloudy
3:47 PM 62.6 °F 51.8 °F 68% 30.10 in 9.0 mi North 5.8 mph - N/A   Mostly Cloudy
4:47 PM 59.0 °F 53.6 °F 82% 30.10 in 5.0 mi NNE 4.6 mph - N/A   Haze
5:50 PM 59.0 °F 50.0 °F 72% 30.12 in 8.0 mi NW 3.5 mph - N/A   Mostly Cloudy
6:47 PM 59.0 °F 50.0 °F 72% 30.13 in 9.0 mi Calm Calm - N/A   Clear
7:53 PM 59.0 °F 50.0 °F 72% 30.16 in 10.0 mi Calm Calm - N/A   Clear
8:50 PM 59.0 °F 53.6 °F 82% 30.16 in 10.0 mi ENE 3.5 mph - N/A   Clear
9:15 PM 59.0 °F 53.6 °F 82% 30.17 in 10.0 mi Calm Calm - N/A   Clear
9:35 PM 57.2 °F 53.6 °F 88% 30.17 in 10.0 mi Calm Calm - N/A   Clear
9:55 PM 57.2 °F 53.6 °F 88% 30.17 in 10.0 mi Calm Calm - N/A   Clear
10:15 PM 57.2 °F 50.0 °F 77% 30.16 in 10.0 mi Calm Calm - N/A   Partly Cloudy
10:35 PM 57.2 °F 50.0 °F 77% 30.16 in 10.0 mi Calm Calm - N/A   Clear
10:55 PM 57.2 °F 51.8 °F 82% 30.16 in 10.0 mi Calm Calm - N/A   Clear
11:15 PM 59.0 °F 50.0 °F 72% 30.17 in 10.0 mi Calm Calm - N/A   Clear
11:35 PM 57.2 °F 53.6 °F 88% 30.16 in 10.0 mi ENE 4.6 mph - N/A   Clear
11:55 PM 57.2 °F 50.0 °F 77% 30.18 in 10.0 mi NW 5.8 mph - N/A   Clear